Погода в Гяндже

Погода в Гяндже : погода сейчас, прогноз погоды и архив. Всё, что Вы хотите узнать о погоде в Гяндже!

Поиск расширенной информации на нашем сайте:

Другие новости

Новости СМИ2

Главная страница сайта

Новости сайта

03.07.2017

Напоминаем, что на нашем специализированном сайте Метеоцентр.Азия вы можете получить высокодетализированные автоматические прогнозы погоды по пунктам России, СНГ и мира в авиационном формате (включающие направление и скорость ветра, видимость, явления погоды, количество и форму облачности, нижнюю и верхнюю границу облачности).

Рекомендуем: Высказывания Мастеров восточных единоборств.

Погода в Гяндже - сегодня

Время (UTC), дата Ветер
(°,м/с) 
Видим.   Явления Облачность Т
(°С)
Тd
(°С)
f(%) Тe
(°С)
Pmin
(гПа)
dP
(гПа)
Po
(мм)
O2
(г/м3)
Тmin Tmax R s Состояние
почвы
15 19.08.17 180 (Ю) 20000 м    1/0 
[Cu hum]
+31.2 +8.9 25 +31  1012.4  -0.6  733  264           
18 19.08.17 160 (Ю) 10 км    ясно 
+29.3 +11.8 34 +33  1012.6  0.2  734  265    +32.7       
21 19.08.17 110 (В) 10 км    ясно 
+25.8 +15.1 52 +35  1013.8  1.2  734  267           
00 20.08.17 160 (Ю) 10 км    ясно 
+21.7 +16.3 71 +33  1015.1  1.3  735  271           
03 20.08.17 тихо ()   20000 м    8/8 1000 м 
[Cu med, cong]
+21.1 +15.9 72 +32  1016  0.9  736  272           
06 20.08.17 340 (С) 20000 м    3/3 1000 м 
[Cu med, cong]
+24.7 +17.2 63 +38  1016.5  0.5  736  268           
09 20.08.17 110 (В) 20000 м    4/4 1000 м средняя 
[Cu med, cong|Ac trans]
+30 +15.4 41 +40  1015.1  -1.4  735  263           
12 20.08.17 160 (Ю) 20000 м    3/0 средняя 
[Ac trans]
+32.9 +2.9 15 +33  1012.8  -2.3  733  263           
15 20.08.17 160 (Ю) 20000 м    3/0 средняя 
[Ac trans]
+31.3 +8.2 24 +31  1011.1  -1.7  732  263           
18 20.08.17 180 (Ю) 10 км    ясно 
+28.7 +12.5 37 +34  1011.2  0.1  733  265    +33.2       
21 20.08.17 180 (Ю) 10 км    5/0 средняя 
[Ac trans]
+24.2 +13.4 51 +31  1011.7  0.5  733  269           
00 21.08.17 320 (СЗ) 10 км    3/0 средняя 
[Ac cuf]
+21.6 +12.8 57 +27  1012.5  0.8  733  271           
03 21.08.17 320 (СЗ) 20000 м    8/0 средняя 
[Ac trans]
+22.2 +12.5 54 +27  1012.8  0.3  733  271           
06 21.08.17 360 (С) 20000 м    4/0 средняя 
[Ac cast]
+26.7 +13.7 45 +34  1012.7  -0.1  733  266           
09 21.08.17 140 (ЮВ) 20000 м    5/5 1000 м 
[Cu hum]
+31.7 +9.8 26 +33  1011.5  -1.2  732  263           
12 21.08.17 140 (ЮВ) 20000 м    5/5 1000 м 
[Cu med, cong]
+33.1 +4.1 16 +33  1009.1  -2.4  730  262           
15 21.08.17 140 (ЮВ) 20000 м    6/6 1000 м 
[Cu med, cong]
+31.7 +12.3 31 +37  1007.7  -1.4  730  261           
18 21.08.17 140 (ЮВ) 10 км    1/1 1000 м 
[Cu hum]
+27.2 +13.7 43 +34  1007.8  0.1  730  265    +34       
21 21.08.17 тихо ()   10 км    ясно 
+23.9 +13.8 53 +31  1008.6  0.8  730  268           
00 22.08.17 270 (З) 10 км    ясно 
+22.1 +15.1 65 +32  1009.3  0.7  730  269           
03 22.08.17 тихо ()   20000 м    ясно 
+21.8 +15.4 67 +32  1009.6  0.3  731  269           
06 22.08.17 270 (З) 20000 м    ясно 
+28.2 +13.1 39 +34  1010  0.4  731  264           
09 22.08.17 200 (Ю) 20000 м    ясно 
+31.9 +14.9 36 +41  1008.8  -1.2  730  260           
12 22.08.17 110 (В) 20000 м    ясно 
+34.9 +5.9 17 +35  1006.6  -2.2  729  259           
15 22.08.17 110 (В) 20000 м    ясно 
+32.7 +10.6 26 +35  1005.2  -1.4  728  260           
Время (UTC), дата Ветер
(°,м/с) 
Видим.   Явления Облачность Т
(°С)
Тd
(°С)
f(%) Тe
(°С)
Pmin
(гПа)
dP
(гПа)
Po
(мм)
O2
(г/м3)
Тmin Tmax R s Состояние
почвы

Для получения пояснительной информации подведите курсор к названию столбца.

ПОГОДА в Гяндже - архив

Всё, что Вы хотите узнать о погоде в Гяндже - удобно и подробно!

Выберите нужную дату (начиная с 1 января 2015* года) и нажмите кнопку "Найти".
Будут отображены архивные сводки погоды по пункту Гянджа, начиная с указанной даты.


Отображать данные в формате CSV (для использования в таблицах Excel)


Внимание! Наш архив погоды предназначен исключительно для личного некоммерческого использования в познавательных целях. Если Вам необходимы официальные справки о состоянии погоды (для производственных, юридических, коммерческих и т.п. целей), обращайтесь в органы Росгидромета.

*Примечание: данная дата относится к архиву по метеостанциям СССР (Россия, СНГ, Балтия).
Архив по метеостанциям Зарубежной Европы и Азии (кроме Китая) хранится 10 дней, по другим регионам земного шара (Китай, Африка, Америка, Австралия, Океания) - 1 день.

Гянджа - район местоположения метеостанции


Название, широта, долгота, высота метеостанции:
Гянджа (город) 40.7°ш. 46.4°д. 311 м над ур. моря [Азербайджан]

Дополнительная информация

В oтличие oт бoльшинства пoгoдных сайтoв мы публикуем пoдрoбную метеoинфoрмацию в детальнoм прoфессиoнальнoм фoрмате.

Характеристики температуры и влажнoсти вoздуха измеряются на высoте 2 м в тени вдали oт зданий и деревьев.
Скoрoсть ветра измеряется на высoте 10 м (на урoвне рoста челoвека скoрoсть ветра ниже в 1.5-2 раза). Если метеoстанция нахoдится в гoрoде или в лесу, тo скoрoсть ветра занижена на 2-4 м/с пo сравнению с oткрытым местoм. Скoрoсть ветра над акватoриями крупных рек и oзёр, а также на вершинах хoлмoв на 2-5 м/с выше, чем в oбычных услoвиях.
Атмoсфернoе давление в разных тoчках местнoсти мoжет значительнo oтличаться oт давления на метеoстанции, в зависимoсти oт услoвий рельефа (при пoдъёме на 10 м давление пoнижается примернo на 1 мм рт.ст.).